Tracking 18624 objects as of 30-April-2017
HD Live streaming from Space Station
objects crossing your sky now

ABS 3

Track ABS 3 now!
ABS 3 is classified as:


NORAD ID: 24901
Int'l Code: 1997-042A
Perigee: 35,758.3 km
Apogee: 35,828.8 km
Inclination: 4.8 °
Period: 1,436.1 minutes
Semi major axis: 42164 km
RCS: 10 m2 (large)
Launch date: August 19, 1997
Source: People's Republic of China (PRC)
Launch site: Xichang Space Center, China (XSC)

Most powerful telecommunications satellite in service in the Asia-Pacific region; 30 C-band, 24 Ku-band transponders; 190 high fidelity channels and 50,000 simultaneous telephone links.
Your satellite tracking list
Your tracking list is empty





NASA's NSSDC Master Catalog

Two Line Element Set (TLE):
1 24901U 97042A   17117.80488368 -.00000204 +00000-0 +00000-0 0  9997
2 24901 004.7987 063.5399 0008362 325.4649 202.2346 01.00272611072086
Source of the keplerian elements: AFSPC